PRIVATE WETTERSTATION BILLIGHEIM-ALLFELD                       ZURCK
Wetterdaten: Freitag, 10.02.2017
Datum Zeit Temp. A. Temp. A. min Temp. A. max Feuchte A. Luftdruck Regen Wind Richtung Richtung Sonnenschein ET Solar Taupunkt Windchill Windben Empfang
10.02.2017 00:00 -1,4 C -1,4 C -1,3 C 81 % 1022,2 hPa 0,0 l/m 1,6 km/h (1 Bft) O-NO 67 0 min 0,000 mm 0 W/m -4,2 C -1,4 C 9,7 km/h (2 Bft) 100 %
10.02.2017 00:10 -1,4 C -1,4 C -1,4 C 82 % 1022,2 hPa 0,0 l/m 1,6 km/h (1 Bft) NO 45 0 min 0,000 mm 0 W/m -4,1 C -1,4 C 9,7 km/h (2 Bft) 100 %
10.02.2017 00:20 -1,4 C -1,4 C -1,4 C 82 % 1022,1 hPa 0,0 l/m 3,2 km/h (1 Bft) NO 45 0 min 0,000 mm 0 W/m -4,1 C -1,4 C 8,0 km/h (2 Bft) 100 %
10.02.2017 00:30 -1,4 C -1,4 C -1,4 C 82 % 1022,1 hPa 0,0 l/m 3,2 km/h (1 Bft) NO 45 0 min 0,000 mm 0 W/m -4,1 C -1,4 C 6,4 km/h (2 Bft) 100 %
10.02.2017 00:40 -1,4 C -1,4 C -1,4 C 82 % 1021,9 hPa 0,0 l/m 3,2 km/h (1 Bft) NO 45 0 min 0,000 mm 0 W/m -4,1 C -1,4 C 9,7 km/h (2 Bft) 100 %
10.02.2017 00:50 -1,4 C -1,4 C -1,4 C 82 % 1021,8 hPa 0,0 l/m 1,6 km/h (1 Bft) NO 45 0 min 0,000 mm 0 W/m -4,1 C -1,4 C 8,0 km/h (2 Bft) 91 %
10.02.2017 01:00 -1,4 C -1,4 C -1,4 C 83 % 1021,8 hPa 0,0 l/m 1,6 km/h (1 Bft) NO 45 0 min 0,000 mm 0 W/m -3,9 C -1,4 C 6,4 km/h (2 Bft) 100 %
10.02.2017 01:10 -1,4 C -1,4 C -1,4 C 82 % 1021,7 hPa 0,0 l/m 1,6 km/h (1 Bft) O-NO 67 0 min 0,000 mm 0 W/m -4,1 C -1,4 C 8,0 km/h (2 Bft) 100 %
10.02.2017 01:20 -1,4 C -1,4 C -1,4 C 83 % 1021,6 hPa 0,0 l/m 1,6 km/h (1 Bft) NO 45 0 min 0,000 mm 0 W/m -3,9 C -1,4 C 9,7 km/h (2 Bft) 100 %
10.02.2017 01:30 -1,4 C -1,4 C -1,4 C 83 % 1021,5 hPa 0,0 l/m 1,6 km/h (1 Bft) NO 45 0 min 0,000 mm 0 W/m -3,9 C -1,4 C 9,7 km/h (2 Bft) 100 %
10.02.2017 01:40 -1,4 C -1,4 C -1,4 C 83 % 1021,5 hPa 0,0 l/m 0,0 km/h (0 Bft) NO 45 0 min 0,000 mm 0 W/m -3,9 C -1,4 C 6,4 km/h (2 Bft) 100 %
10.02.2017 01:50 -1,4 C -1,4 C -1,4 C 83 % 1021,5 hPa 0,0 l/m 1,6 km/h (1 Bft) NO 45 0 min 0,000 mm 0 W/m -3,9 C -1,4 C 6,4 km/h (2 Bft) 100 %
10.02.2017 02:00 -1,4 C -1,4 C -1,4 C 83 % 1021,3 hPa 0,0 l/m 1,6 km/h (1 Bft) O-NO 67 0 min 0,000 mm 0 W/m -3,9 C -1,4 C 6,4 km/h (2 Bft) 100 %
10.02.2017 02:10 -1,4 C -1,4 C -1,4 C 83 % 1021,3 hPa 0,0 l/m 1,6 km/h (1 Bft) O-NO 67 0 min 0,000 mm 0 W/m -3,9 C -1,4 C 8,0 km/h (2 Bft) 100 %
10.02.2017 02:20 -1,4 C -1,4 C -1,4 C 83 % 1021,3 hPa 0,0 l/m 1,6 km/h (1 Bft) O-NO 67 0 min 0,000 mm 0 W/m -3,9 C -1,4 C 4,8 km/h (1 Bft) 100 %
10.02.2017 02:30 -1,4 C -1,4 C -1,4 C 83 % 1021,1 hPa 0,0 l/m 1,6 km/h (1 Bft) NO 45 0 min 0,000 mm 0 W/m -3,9 C -1,4 C 8,0 km/h (2 Bft) 100 %
10.02.2017 02:40 -1,4 C -1,4 C -1,4 C 83 % 1021,1 hPa 0,0 l/m 1,6 km/h (1 Bft) NO 45 0 min 0,000 mm 0 W/m -3,9 C -1,4 C 8,0 km/h (2 Bft) 100 %
10.02.2017 02:50 -1,4 C -1,4 C -1,4 C 84 % 1021,1 hPa 0,0 l/m 0,0 km/h (0 Bft) NO 45 0 min 0,000 mm 0 W/m -3,7 C -1,4 C 1,6 km/h (1 Bft) 100 %
10.02.2017 03:00 -1,4 C -1,4 C -1,4 C 84 % 1021,0 hPa 0,0 l/m 0,0 km/h (0 Bft) O 90 0 min 0,000 mm 0 W/m -3,7 C -1,4 C 8,0 km/h (2 Bft) 100 %
10.02.2017 03:10 -1,4 C -1,4 C -1,4 C 84 % 1020,8 hPa 0,0 l/m 0,0 km/h (0 Bft) O-NO 67 0 min 0,000 mm 0 W/m -3,7 C -1,4 C 6,4 km/h (2 Bft) 100 %
10.02.2017 03:20 -1,4 C -1,4 C -1,4 C 84 % 1020,8 hPa 0,0 l/m 0,0 km/h (0 Bft) O-SO 112 0 min 0,000 mm 0 W/m -3,7 C -1,4 C 8,0 km/h (2 Bft) 100 %
10.02.2017 03:30 -1,4 C -1,4 C -1,4 C 84 % 1020,8 hPa 0,0 l/m 1,6 km/h (1 Bft) NO 45 0 min 0,000 mm 0 W/m -3,7 C -1,4 C 8,0 km/h (2 Bft) 100 %
10.02.2017 03:40 -1,4 C -1,4 C -1,4 C 84 % 1020,8 hPa 0,0 l/m 0,0 km/h (0 Bft) NO 45 0 min 0,000 mm 0 W/m -3,7 C -1,4 C 6,4 km/h (2 Bft) 100 %
10.02.2017 03:50 -1,4 C -1,4 C -1,4 C 84 % 1020,7 hPa 0,0 l/m 0,0 km/h (0 Bft) NO 45 0 min 0,000 mm 0 W/m -3,7 C -1,4 C 6,4 km/h (2 Bft) 100 %
10.02.2017 04:00 -1,4 C -1,4 C -1,4 C 84 % 1020,6 hPa 0,0 l/m 0,0 km/h (0 Bft) NO 45 0 min 0,000 mm 0 W/m -3,7 C -1,4 C 6,4 km/h (2 Bft) 100 %
10.02.2017 04:10 -1,4 C -1,4 C -1,4 C 84 % 1020,7 hPa 0,0 l/m 0,0 km/h (0 Bft) NO 45 0 min 0,000 mm 0 W/m -3,7 C -1,4 C 1,6 km/h (1 Bft) 100 %
10.02.2017 04:20 -1,4 C -1,4 C -1,4 C 84 % 1020,7 hPa 0,0 l/m 0,0 km/h (0 Bft) NO 45 0 min 0,000 mm 0 W/m -3,7 C -1,4 C 6,4 km/h (2 Bft) 100 %
10.02.2017 04:30 -1,4 C -1,4 C -1,4 C 84 % 1020,7 hPa 0,0 l/m 0,0 km/h (0 Bft) NO 45 0 min 0,000 mm 0 W/m -3,7 C -1,4 C 6,4 km/h (2 Bft) 100 %
10.02.2017 04:40 -1,4 C -1,4 C -1,4 C 84 % 1020,6 hPa 0,0 l/m 0,0 km/h (0 Bft) N 0 0 min 0,000 mm 0 W/m -3,7 C -1,4 C 0,0 km/h (0 Bft) 90 %
10.02.2017 04:50 -1,4 C -1,4 C -1,4 C 84 % 1020,7 hPa 0,0 l/m 0,0 km/h (0 Bft) NO 45 0 min 0,000 mm 0 W/m -3,7 C -1,4 C 1,6 km/h (1 Bft) 100 %
10.02.2017 05:00 -1,4 C -1,4 C -1,4 C 84 % 1020,6 hPa 0,0 l/m 0,0 km/h (0 Bft) O-NO 67 0 min 0,000 mm 0 W/m -3,7 C -1,4 C 1,6 km/h (1 Bft) 100 %
10.02.2017 05:10 -1,3 C -1,4 C -1,3 C 84 % 1020,6 hPa 0,0 l/m 0,0 km/h (0 Bft) N 0 0 min 0,000 mm 0 W/m -3,6 C -1,3 C 0,0 km/h (0 Bft) 100 %
10.02.2017 05:20 -1,3 C -1,3 C -1,3 C 85 % 1020,6 hPa 0,0 l/m 0,0 km/h (0 Bft) N 0 0 min 0,000 mm 0 W/m -3,5 C -1,3 C 0,0 km/h (0 Bft) 99 %
10.02.2017 05:30 -1,3 C -1,3 C -1,3 C 85 % 1020,7 hPa 0,0 l/m 0,0 km/h (0 Bft) N 0 0 min 0,000 mm 0 W/m -3,5 C -1,3 C 0,0 km/h (0 Bft) 100 %
10.02.2017 05:40 -1,3 C -1,3 C -1,3 C 85 % 1020,6 hPa 0,0 l/m 0,0 km/h (0 Bft) N 0 0 min 0,000 mm 0 W/m -3,5 C -1,3 C 0,0 km/h (0 Bft) 97 %
10.02.2017 05:50 -1,3 C -1,3 C -1,3 C 85 % 1020,5 hPa 0,0 l/m 0,0 km/h (0 Bft) N 0 0 min 0,000 mm 0 W/m -3,5 C -1,3 C 0,0 km/h (0 Bft) 98 %
10.02.2017 06:00 -1,3 C -1,3 C -1,3 C 85 % 1020,5 hPa 0,0 l/m 0,0 km/h (0 Bft) O-NO 67 0 min 0,000 mm 0 W/m -3,5 C -1,3 C 3,2 km/h (1 Bft) 86 %
10.02.2017 06:10 -1,3 C -1,3 C -1,3 C 85 % 1020,4 hPa 0,0 l/m 0,0 km/h (0 Bft) N 0 0 min 0,000 mm 0 W/m -3,5 C -1,3 C 0,0 km/h (0 Bft) 98 %
10.02.2017 06:20 -1,3 C -1,3 C -1,3 C 85 % 1020,3 hPa 0,0 l/m 0,0 km/h (0 Bft) N 0 0 min 0,000 mm 0 W/m -3,5 C -1,3 C 0,0 km/h (0 Bft) 98 %
10.02.2017 06:30 -1,3 C -1,3 C -1,3 C 86 % 1020,5 hPa 0,0 l/m 0,0 km/h (0 Bft) N 0 0 min 0,000 mm 0 W/m -3,3 C -1,3 C 0,0 km/h (0 Bft) 97 %
10.02.2017 06:40 -1,3 C -1,3 C -1,2 C 85 % 1020,4 hPa 0,0 l/m 0,0 km/h (0 Bft) N 0 0 min 0,000 mm 0 W/m -3,5 C -1,3 C 0,0 km/h (0 Bft) 98 %
10.02.2017 06:50 -1,2 C -1,3 C -1,2 C 86 % 1020,3 hPa 0,0 l/m 0,0 km/h (0 Bft) N 0 0 min 0,000 mm 0 W/m -3,2 C -1,2 C 0,0 km/h (0 Bft) 97 %
10.02.2017 07:00 -1,2 C -1,3 C -1,2 C 86 % 1020,4 hPa 0,0 l/m 0,0 km/h (0 Bft) N 0 0 min 0,000 mm 0 W/m -3,2 C -1,2 C 0,0 km/h (0 Bft) 98 %
10.02.2017 07:10 -1,2 C -1,3 C -1,2 C 86 % 1020,3 hPa 0,0 l/m 0,0 km/h (0 Bft) N 0 0 min 0,000 mm 0 W/m -3,2 C -1,2 C 0,0 km/h (0 Bft) 97 %
10.02.2017 07:20 -1,2 C -1,2 C -1,2 C 86 % 1020,4 hPa 0,0 l/m 0,0 km/h (0 Bft) NO 45 0 min 0,000 mm 0 W/m -3,2 C -1,2 C 3,2 km/h (1 Bft) 89 %
10.02.2017 07:30 -1,2 C -1,2 C -1,2 C 86 % 1020,6 hPa 0,0 l/m 0,0 km/h (0 Bft) NO 45 0 min 0,000 mm 0 W/m -3,2 C -1,2 C 3,2 km/h (1 Bft) 97 %
10.02.2017 07:40 -1,2 C -1,3 C -1,2 C 85 % 1020,6 hPa 0,0 l/m 0,0 km/h (0 Bft) N 0 0 min 0,000 mm 0 W/m -3,4 C -1,2 C 0,0 km/h (0 Bft) 97 %
10.02.2017 07:50 -1,2 C -1,2 C -1,2 C 85 % 1020,6 hPa 0,0 l/m 0,0 km/h (0 Bft) N 0 0 min 0,000 mm 0 W/m -3,4 C -1,2 C 0,0 km/h (0 Bft) 98 %
10.02.2017 08:00 -1,2 C -1,2 C -1,2 C 85 % 1020,6 hPa 0,0 l/m 0,0 km/h (0 Bft) N 0 0 min 0,000 mm 0 W/m -3,4 C -1,2 C 0,0 km/h (0 Bft) 97 %
10.02.2017 08:10 -1,2 C -1,2 C -1,2 C 85 % 1020,7 hPa 0,0 l/m 0,0 km/h (0 Bft) NO 45 0 min 0,000 mm 0 W/m -3,4 C -1,2 C 1,6 km/h (1 Bft) 98 %
10.02.2017 08:20 -1,2 C -1,2 C -1,2 C 85 % 1020,8 hPa 0,0 l/m 0,0 km/h (0 Bft) N 0 0 min 0,000 mm 5 W/m -3,4 C -1,2 C 0,0 km/h (0 Bft) 97 %
10.02.2017 08:30 -1,2 C -1,2 C -1,2 C 85 % 1020,9 hPa 0,0 l/m 0,0 km/h (0 Bft) N 0 0 min 0,000 mm 9 W/m -3,4 C -1,2 C 0,0 km/h (0 Bft) 98 %
10.02.2017 08:40 -1,1 C -1,2 C -1,1 C 85 % 1020,8 hPa 0,0 l/m 0,0 km/h (0 Bft) N 0 0 min 0,000 mm 12 W/m -3,3 C -1,1 C 0,0 km/h (0 Bft) 97 %
10.02.2017 08:50 -1,1 C -1,2 C -1,1 C 85 % 1020,8 hPa 0,0 l/m 0,0 km/h (0 Bft) N 0 0 min 0,000 mm 12 W/m -3,3 C -1,1 C 0,0 km/h (0 Bft) 97 %
10.02.2017 09:00 -1,1 C -1,1 C -1,1 C 85 % 1020,8 hPa 0,0 l/m 0,0 km/h (0 Bft) N 0 0 min 0,000 mm 18 W/m -3,3 C -1,1 C 0,0 km/h (0 Bft) 97 %
10.02.2017 09:10 -1,0 C -1,1 C -1,0 C 85 % 1020,8 hPa 0,0 l/m 0,0 km/h (0 Bft) O-NO 67 0 min 0,000 mm 21 W/m -3,2 C -1,0 C 3,2 km/h (1 Bft) 97 %
10.02.2017 09:20 -0,9 C -1,0 C -0,9 C 85 % 1020,8 hPa 0,0 l/m 0,0 km/h (0 Bft) N 0 0 min 0,000 mm 25 W/m -3,1 C -0,9 C 0,0 km/h (0 Bft) 98 %
10.02.2017 09:30 -0,9 C -0,9 C -0,9 C 84 % 1020,8 hPa 0,0 l/m 0,0 km/h (0 Bft) O 90 0 min 0,000 mm 26 W/m -3,3 C -0,9 C 4,8 km/h (1 Bft) 97 %
10.02.2017 09:40 -0,8 C -0,9 C -0,8 C 84 % 1020,8 hPa 0,0 l/m 0,0 km/h (0 Bft) O 90 0 min 0,000 mm 32 W/m -3,2 C -0,8 C 1,6 km/h (1 Bft) 98 %
10.02.2017 09:50 -0,7 C -0,8 C -0,7 C 84 % 1020,8 hPa 0,0 l/m 0,0 km/h (0 Bft) N 0 0 min 0,000 mm 37 W/m -3,1 C -0,7 C 0,0 km/h (0 Bft) 97 %
10.02.2017 10:00 -0,7 C -0,8 C -0,7 C 84 % 1020,8 hPa 0,0 l/m 1,6 km/h (1 Bft) O 90 0 min 0,000 mm 37 W/m -3,1 C -0,7 C 6,4 km/h (2 Bft) 88 %
10.02.2017 10:10 -0,6 C -0,7 C -0,6 C 83 % 1020,8 hPa 0,0 l/m 0,0 km/h (0 Bft) O 90 0 min 0,000 mm 37 W/m -3,1 C -0,6 C 6,4 km/h (2 Bft) 98 %
10.02.2017 10:20 -0,6 C -0,7 C -0,6 C 83 % 1021,0 hPa 0,0 l/m 0,0 km/h (0 Bft) O 90 0 min 0,000 mm 37 W/m -3,1 C -0,6 C 4,8 km/h (1 Bft) 96 %
10.02.2017 10:30 -0,6 C -0,6 C -0,6 C 82 % 1021,0 hPa 0,0 l/m 1,6 km/h (1 Bft) O-SO 112 0 min 0,000 mm 35 W/m -3,3 C -0,6 C 6,4 km/h (2 Bft) 98 %
10.02.2017 10:40 -0,6 C -0,6 C -0,6 C 83 % 1021,1 hPa 0,0 l/m 0,0 km/h (0 Bft) SO 135 0 min 0,000 mm 40 W/m -3,1 C -0,6 C 3,2 km/h (1 Bft) 97 %
10.02.2017 10:50 -0,5 C -0,6 C -0,5 C 82 % 1021,1 hPa 0,0 l/m 0,0 km/h (0 Bft) SO 135 0 min 0,000 mm 47 W/m -3,2 C -0,5 C 3,2 km/h (1 Bft) 98 %
10.02.2017 11:00 -0,4 C -0,5 C -0,4 C 83 % 1021,1 hPa 0,0 l/m 0,0 km/h (0 Bft) N 0 0 min 0,025 mm 58 W/m -2,9 C -0,4 C 0,0 km/h (0 Bft) 97 %
10.02.2017 11:10 -0,4 C -0,4 C -0,4 C 83 % 1021,2 hPa 0,0 l/m 1,6 km/h (1 Bft) O-SO 112 0 min 0,000 mm 72 W/m -2,9 C -0,4 C 8,0 km/h (2 Bft) 97 %
10.02.2017 11:20 -0,3 C -0,4 C -0,3 C 82 % 1021,1 hPa 0,0 l/m 0,0 km/h (0 Bft) O-SO 112 0 min 0,000 mm 79 W/m -3,0 C -0,3 C 4,8 km/h (1 Bft) 89 %
10.02.2017 11:30 -0,2 C -0,3 C -0,2 C 82 % 1021,1 hPa 0,0 l/m 1,6 km/h (1 Bft) SO 135 0 min 0,000 mm 90 W/m -2,9 C -0,2 C 9,7 km/h (2 Bft) 98 %
10.02.2017 11:40 -0,1 C -0,2 C -0,1 C 82 % 1021,2 hPa 0,0 l/m 1,6 km/h (1 Bft) SO 135 0 min 0,000 mm 104 W/m -2,8 C -0,1 C 9,7 km/h (2 Bft) 98 %
10.02.2017 11:50 -0,1 C -0,1 C -0,1 C 82 % 1021,0 hPa 0,0 l/m 1,6 km/h (1 Bft) O-SO 112 0 min 0,000 mm 127 W/m -2,8 C -0,1 C 8,0 km/h (2 Bft) 97 %
10.02.2017 12:00 0,1 C -0,1 C 0,1 C 81 % 1021,0 hPa 0,0 l/m 1,6 km/h (1 Bft) O 90 0 min 0,025 mm 128 W/m -2,8 C 0,1 C 8,0 km/h (2 Bft) 98 %
10.02.2017 12:10 0,2 C 0,1 C 0,2 C 81 % 1021,0 hPa 0,0 l/m 1,6 km/h (1 Bft) O-SO 112 0 min 0,000 mm 118 W/m -2,7 C 0,2 C 6,4 km/h (2 Bft) 97 %
10.02.2017 12:20 0,2 C 0,2 C 0,2 C 80 % 1021,0 hPa 0,0 l/m 3,2 km/h (1 Bft) SO 135 0 min 0,000 mm 114 W/m -2,8 C 0,2 C 9,7 km/h (2 Bft) 98 %
10.02.2017 12:30 0,2 C 0,1 C 0,2 C 80 % 1021,1 hPa 0,0 l/m 1,6 km/h (1 Bft) O 90 0 min 0,000 mm 123 W/m -2,8 C 0,2 C 8,0 km/h (2 Bft) 98 %
10.02.2017 12:40 0,3 C 0,2 C 0,3 C 80 % 1021,0 hPa 0,0 l/m 0,0 km/h (0 Bft) O-NO 67 10 min 0,000 mm 162 W/m -2,7 C 0,3 C 4,8 km/h (1 Bft) 97 %
10.02.2017 12:50 0,5 C 0,3 C 0,5 C 79 % 1021,1 hPa 0,0 l/m 0,0 km/h (0 Bft) SO 135 10 min 0,000 mm 160 W/m -2,7 C 0,5 C 4,8 km/h (1 Bft) 99 %
10.02.2017 13:00 0,6 C 0,5 C 0,6 C 80 % 1021,0 hPa 0,0 l/m 0,0 km/h (0 Bft) SO 135 0 min 0,051 mm 137 W/m -2,4 C 0,6 C 3,2 km/h (1 Bft) 97 %
10.02.2017 13:10 0,6 C 0,6 C 0,6 C 79 % 1021,0 hPa 0,0 l/m 1,6 km/h (1 Bft) SO 135 0 min 0,000 mm 151 W/m -2,6 C 0,6 C 9,7 km/h (2 Bft) 98 %
10.02.2017 13:20 0,7 C 0,6 C 0,7 C 79 % 1020,9 hPa 0,0 l/m 0,0 km/h (0 Bft) O-SO 112 0 min 0,000 mm 149 W/m -2,5 C 0,7 C 4,8 km/h (1 Bft) 97 %
10.02.2017 13:30 0,7 C 0,7 C 0,7 C 78 % 1020,9 hPa 0,0 l/m 0,0 km/h (0 Bft) O 90 0 min 0,000 mm 127 W/m -2,7 C 0,7 C 6,4 km/h (2 Bft) 98 %
10.02.2017 13:40 0,6 C 0,6 C 0,7 C 78 % 1021,0 hPa 0,0 l/m 3,2 km/h (1 Bft) SO 135 0 min 0,000 mm 97 W/m -2,8 C 0,6 C 9,7 km/h (2 Bft) 98 %
10.02.2017 13:50 0,5 C 0,5 C 0,6 C 78 % 1020,8 hPa 0,0 l/m 0,0 km/h (0 Bft) O-SO 112 0 min 0,000 mm 83 W/m -2,9 C 0,5 C 4,8 km/h (1 Bft) 98 %
10.02.2017 14:00 0,6 C 0,5 C 0,6 C 78 % 1020,8 hPa 0,0 l/m 0,0 km/h (0 Bft) N 0 0 min 0,051 mm 76 W/m -2,8 C 0,6 C 0,0 km/h (0 Bft) 98 %
10.02.2017 14:10 0,5 C 0,5 C 0,6 C 78 % 1020,8 hPa 0,0 l/m 0,0 km/h (0 Bft) O-SO 112 0 min 0,000 mm 81 W/m -2,9 C 0,5 C 6,4 km/h (2 Bft) 97 %
10.02.2017 14:20 0,5 C 0,5 C 0,6 C 79 % 1020,7 hPa 0,0 l/m 0,0 km/h (0 Bft) O-SO 112 0 min 0,000 mm 86 W/m -2,7 C 0,5 C 4,8 km/h (1 Bft) 98 %
10.02.2017 14:30 0,5 C 0,5 C 0,6 C 79 % 1020,7 hPa 0,0 l/m 1,6 km/h (1 Bft) O-SO 112 0 min 0,000 mm 90 W/m -2,7 C 0,5 C 8,0 km/h (2 Bft) 97 %
10.02.2017 14:40 0,6 C 0,4 C 0,6 C 80 % 1020,7 hPa 0,0 l/m 0,0 km/h (0 Bft) O-SO 112 10 min 0,000 mm 176 W/m -2,4 C 0,6 C 4,8 km/h (1 Bft) 98 %
10.02.2017 14:50 0,7 C 0,6 C 0,7 C 79 % 1020,6 hPa 0,0 l/m 1,6 km/h (1 Bft) SO 135 10 min 0,000 mm 190 W/m -2,5 C 0,7 C 6,4 km/h (2 Bft) 98 %
10.02.2017 15:00 0,7 C 0,7 C 0,7 C 79 % 1020,8 hPa 0,0 l/m 1,6 km/h (1 Bft) O 90 0 min 0,025 mm 100 W/m -2,5 C 0,7 C 9,7 km/h (2 Bft) 99 %
10.02.2017 15:10 0,7 C 0,7 C 0,7 C 80 % 1020,9 hPa 0,0 l/m 3,4 km/h (1 Bft) O 95 0 min 0,001 mm 116 W/m -2,3 C 0,7 C 8,0 km/h (2 Bft) 98 %
10.02.2017 15:20 0,7 C 0,7 C 0,7 C 79 % 1020,6 hPa 0,0 l/m 1,9 km/h (1 Bft) O 88 0 min 0,000 mm 86 W/m -2,5 C 0,7 C 9,7 km/h (2 Bft) 97 %
10.02.2017 15:30 0,6 C 0,6 C 0,7 C 79 % 1020,8 hPa 0,0 l/m 2,8 km/h (1 Bft) SO 132 0 min 0,000 mm 79 W/m -2,6 C 0,6 C 9,7 km/h (2 Bft) 98 %
10.02.2017 15:40 0,6 C 0,6 C 0,6 C 80 % 1020,9 hPa 0,0 l/m 3,6 km/h (1 Bft) O-SO 103 0 min 0,000 mm 76 W/m -2,4 C 0,6 C 11,3 km/h (2 Bft) 97 %
10.02.2017 15:50 0,6 C 0,5 C 0,6 C 80 % 1020,8 hPa 0,0 l/m 0,7 km/h (0 Bft) O 93 0 min 0,000 mm 53 W/m -2,4 C 0,6 C 6,4 km/h (2 Bft) 97 %
10.02.2017 16:00 0,5 C 0,5 C 0,6 C 80 % 1020,9 hPa 0,0 l/m 1,4 km/h (1 Bft) O-SO 115 0 min 0,000 mm 58 W/m -2,5 C 0,5 C 6,4 km/h (2 Bft) 98 %
10.02.2017 16:10 0,5 C 0,4 C 0,5 C 80 % 1020,8 hPa 0,0 l/m 1,3 km/h (1 Bft) O-NO 74 0 min 0,025 mm 44 W/m -2,5 C 0,5 C 8,0 km/h (2 Bft) 97 %
10.02.2017 16:20 0,4 C 0,4 C 0,5 C 80 % 1020,7 hPa 0,0 l/m 0,9 km/h (0 Bft) O 101 0 min 0,000 mm 33 W/m -2,6 C 0,4 C 4,8 km/h (1 Bft) 98 %
10.02.2017 16:30 0,4 C 0,4 C 0,4 C 81 % 1020,7 hPa 0,0 l/m 1,8 km/h (1 Bft) O-SO 115 0 min 0,000 mm 35 W/m -2,5 C 0,4 C 8,0 km/h (2 Bft) 97 %
10.02.2017 16:40 0,3 C 0,3 C 0,4 C 81 % 1020,6 hPa 0,0 l/m 0,2 km/h (0 Bft) O-NO 78 0 min 0,000 mm 26 W/m -2,6 C 0,3 C 4,8 km/h (1 Bft) 97 %
10.02.2017 16:50 0,3 C 0,3 C 0,4 C 82 % 1020,6 hPa 0,0 l/m 0,8 km/h (0 Bft) O-SO 105 0 min 0,000 mm 14 W/m -2,4 C 0,3 C 9,7 km/h (2 Bft) 89 %
10.02.2017 17:00 0,3 C 0,3 C 0,3 C 82 % 1020,5 hPa 0,0 l/m 0,1 km/h (0 Bft) O 101 0 min 0,000 mm 16 W/m -2,4 C 0,3 C 3,2 km/h (1 Bft) 97 %
10.02.2017 17:10 0,2 C 0,2 C 0,3 C 82 % 1020,5 hPa 0,0 l/m 1,3 km/h (1 Bft) O 88 0 min 0,025 mm 19 W/m -2,5 C 0,2 C 8,0 km/h (2 Bft) 98 %
10.02.2017 17:20 0,1 C 0,1 C 0,2 C 83 % 1020,5 hPa 0,0 l/m 0,7 km/h (0 Bft) O-SO 111 0 min 0,001 mm 7 W/m -2,4 C 0,1 C 6,4 km/h (2 Bft) 97 %
10.02.2017 17:30 0,1 C 0,1 C 0,1 C 83 % 1020,4 hPa 0,0 l/m 0,0 km/h (0 Bft) O-SO 104 0 min 0,000 mm 5 W/m -2,4 C 0,1 C 1,6 km/h (1 Bft) 97 %
10.02.2017 17:40 0,0 C 0,0 C 0,1 C 83 % 1020,4 hPa 0,0 l/m 0,8 km/h (0 Bft) O-NO 78 0 min 0,000 mm 0 W/m -2,5 C 0,0 C 6,4 km/h (2 Bft) 96 %
10.02.2017 17:50 0,0 C 0,0 C 0,0 C 84 % 1020,5 hPa 0,0 l/m 0,8 km/h (0 Bft) O 95 0 min 0,000 mm 0 W/m -2,4 C 0,0 C 8,0 km/h (2 Bft) 97 %
10.02.2017 18:00 -0,1 C -0,1 C 0,0 C 84 % 1020,6 hPa 0,0 l/m 0,6 km/h (0 Bft) O-SO 109 0 min 0,000 mm 0 W/m -2,5 C -0,1 C 4,8 km/h (1 Bft) 97 %
10.02.2017 18:10 -0,1 C -0,1 C -0,1 C 84 % 1020,6 hPa 0,0 l/m 1,3 km/h (1 Bft) O-SO 105 0 min 0,000 mm 0 W/m -2,5 C -0,1 C 8,0 km/h (2 Bft) 97 %
10.02.2017 18:20 -0,1 C -0,1 C -0,1 C 84 % 1020,8 hPa 0,0 l/m 0,0 km/h (0 Bft) O-SO 111 0 min 0,000 mm 0 W/m -2,5 C -0,1 C 3,2 km/h (1 Bft) 98 %
10.02.2017 18:30 -0,1 C -0,2 C -0,1 C 84 % 1020,8 hPa 0,0 l/m 0,0 km/h (0 Bft) O-SO 110 0 min 0,000 mm 0 W/m -2,5 C -0,1 C 0,0 km/h (0 Bft) 98 %
10.02.2017 18:40 -0,2 C -0,2 C -0,1 C 84 % 1020,8 hPa 0,0 l/m 0,0 km/h (0 Bft) O-SO 110 0 min 0,000 mm 0 W/m -2,6 C -0,2 C 0,0 km/h (0 Bft) 98 %
10.02.2017 18:50 -0,3 C -0,3 C -0,2 C 85 % 1021,1 hPa 0,0 l/m 0,1 km/h (0 Bft) O 82 0 min 0,000 mm 0 W/m -2,5 C -0,3 C 4,8 km/h (1 Bft) 97 %
10.02.2017 19:00 -0,4 C -0,4 C -0,3 C 85 % 1021,1 hPa 0,0 l/m 0,0 km/h (0 Bft) O 81 0 min 0,000 mm 0 W/m -2,6 C -0,4 C 0,0 km/h (0 Bft) 97 %
10.02.2017 19:10 -0,5 C -0,5 C -0,4 C 86 % 1021,0 hPa 0,0 l/m 0,0 km/h (0 Bft) O-NO 78 0 min 0,000 mm 0 W/m -2,5 C -0,5 C 0,0 km/h (0 Bft) 98 %
10.02.2017 19:20 -0,6 C -0,6 C -0,5 C 87 % 1020,9 hPa 0,0 l/m 0,2 km/h (0 Bft) N 360 0 min 0,000 mm 0 W/m -2,5 C -0,6 C 4,8 km/h (1 Bft) 97 %
10.02.2017 19:30 -0,7 C -0,7 C -0,6 C 88 % 1020,8 hPa 0,0 l/m 0,1 km/h (0 Bft) NO 52 0 min 0,000 mm 0 W/m -2,4 C -0,7 C 4,8 km/h (1 Bft) 97 %
10.02.2017 19:40 -0,7 C -0,7 C -0,7 C 89 % 1020,8 hPa 0,0 l/m 0,1 km/h (0 Bft) O 92 0 min 0,000 mm 0 W/m -2,3 C -0,7 C 4,8 km/h (1 Bft) 97 %
10.02.2017 19:50 -0,7 C -0,7 C -0,7 C 89 % 1021,0 hPa 0,0 l/m 0,0 km/h (0 Bft) O 92 0 min 0,000 mm 0 W/m -2,3 C -0,7 C 0,0 km/h (0 Bft) 98 %
10.02.2017 20:00 -0,7 C -0,7 C -0,7 C 89 % 1020,9 hPa 0,0 l/m 0,0 km/h (0 Bft) O 91 0 min 0,000 mm 0 W/m -2,3 C -0,7 C 0,0 km/h (0 Bft) 97 %
10.02.2017 20:10 -0,7 C -0,7 C -0,7 C 90 % 1020,9 hPa 0,0 l/m 0,0 km/h (0 Bft) O 88 0 min 0,000 mm 0 W/m -2,1 C -0,7 C 0,0 km/h (0 Bft) 98 %
10.02.2017 20:20 -0,7 C -0,7 C -0,7 C 90 % 1020,9 hPa 0,0 l/m 0,0 km/h (0 Bft) O 88 0 min 0,000 mm 0 W/m -2,1 C -0,7 C 0,0 km/h (0 Bft) 97 %
10.02.2017 20:30 -0,6 C -0,7 C -0,6 C 90 % 1020,7 hPa 0,0 l/m 0,5 km/h (0 Bft) NO 49 0 min 0,000 mm 0 W/m -2,0 C -0,6 C 6,4 km/h (2 Bft) 97 %
10.02.2017 20:40 -0,7 C -0,7 C -0,6 C 90 % 1020,8 hPa 0,0 l/m 0,1 km/h (0 Bft) NO 49 0 min 0,000 mm 0 W/m -2,1 C -0,7 C 3,2 km/h (1 Bft) 98 %
10.02.2017 20:50 -0,7 C -0,7 C -0,6 C 90 % 1020,7 hPa 0,0 l/m 0,1 km/h (0 Bft) N-NO 19 0 min 0,000 mm 0 W/m -2,1 C -0,7 C 4,8 km/h (1 Bft) 97 %
10.02.2017 21:00 -0,7 C -0,7 C -0,6 C 90 % 1020,7 hPa 0,0 l/m 0,6 km/h (0 Bft) O 88 0 min 0,000 mm 0 W/m -2,1 C -0,7 C 8,0 km/h (2 Bft) 97 %
10.02.2017 21:10 -0,6 C -0,7 C -0,6 C 90 % 1020,6 hPa 0,0 l/m 1,6 km/h (1 Bft) O 90 0 min 0,000 mm 0 W/m -2,0 C -0,6 C 11,3 km/h (2 Bft) 100 %
10.02.2017 21:20 -0,7 C -0,7 C -0,6 C 90 % 1020,6 hPa 0,0 l/m 1,6 km/h (1 Bft) O 90 0 min 0,000 mm 0 W/m -2,1 C -0,7 C 9,7 km/h (2 Bft) 100 %
10.02.2017 21:30 -0,8 C -0,8 C -0,7 C 89 % 1020,6 hPa 0,0 l/m 0,0 km/h (0 Bft) O 90 0 min 0,000 mm 0 W/m -2,4 C -0,8 C 4,8 km/h (1 Bft) 100 %
10.02.2017 21:40 -0,9 C -0,9 C -0,8 C 90 % 1020,6 hPa 0,0 l/m 1,6 km/h (1 Bft) O 90 0 min 0,000 mm 0 W/m -2,3 C -0,9 C 9,7 km/h (2 Bft) 91 %
10.02.2017 21:50 -0,9 C -0,9 C -0,8 C 90 % 1020,6 hPa 0,0 l/m 1,6 km/h (1 Bft) O 90 0 min 0,000 mm 0 W/m -2,3 C -0,9 C 6,4 km/h (2 Bft) 100 %
10.02.2017 22:00 -0,9 C -0,9 C -0,9 C 90 % 1020,6 hPa 0,0 l/m 1,6 km/h (1 Bft) O 90 0 min 0,000 mm 0 W/m -2,3 C -0,9 C 9,7 km/h (2 Bft) 100 %
10.02.2017 22:10 -1,0 C -1,0 C -0,9 C 90 % 1020,2 hPa 0,0 l/m 0,0 km/h (0 Bft) O-NO 67 0 min 0,000 mm 0 W/m -2,4 C -1,0 C 8,0 km/h (2 Bft) 100 %
10.02.2017 22:20 -1,2 C -1,2 C -1,0 C 90 % 1020,4 hPa 0,0 l/m 0,0 km/h (0 Bft) O-NO 67 0 min 0,000 mm 0 W/m -2,6 C -1,2 C 3,2 km/h (1 Bft) 100 %
10.02.2017 22:30 -1,3 C -1,3 C -1,2 C 90 % 1020,4 hPa 0,0 l/m 0,0 km/h (0 Bft) NO 45 0 min 0,000 mm 0 W/m -2,7 C -1,3 C 8,0 km/h (2 Bft) 100 %
10.02.2017 22:40 -1,4 C -1,4 C -1,3 C 91 % 1020,4 hPa 0,0 l/m 0,0 km/h (0 Bft) NO 45 0 min 0,000 mm 0 W/m -2,7 C -1,4 C 1,6 km/h (1 Bft) 100 %
10.02.2017 22:50 -1,5 C -1,5 C -1,4 C 91 % 1020,5 hPa 0,0 l/m 0,0 km/h (0 Bft) N 0 0 min 0,000 mm 0 W/m -2,8 C -1,5 C 0,0 km/h (0 Bft) 100 %
10.02.2017 23:00 -1,7 C -1,7 C -1,5 C 91 % 1020,6 hPa 0,0 l/m 0,0 km/h (0 Bft) N 0 0 min 0,000 mm 0 W/m -3,0 C -1,7 C 0,0 km/h (0 Bft) 100 %
10.02.2017 23:10 -1,8 C -1,8 C -1,7 C 91 % 1020,4 hPa 0,0 l/m 0,0 km/h (0 Bft) N 0 0 min 0,000 mm 0 W/m -3,1 C -1,8 C 0,0 km/h (0 Bft) 100 %
10.02.2017 23:20 -1,9 C -1,9 C -1,8 C 91 % 1020,4 hPa 0,0 l/m 0,0 km/h (0 Bft) O 90 0 min 0,000 mm 0 W/m -3,2 C -1,9 C 4,8 km/h (1 Bft) 100 %
10.02.2017 23:30 -2,0 C -2,0 C -1,9 C 91 % 1020,3 hPa 0,0 l/m 0,0 km/h (0 Bft) O-NO 67 0 min 0,000 mm 0 W/m -3,3 C -2,0 C 3,2 km/h (1 Bft) 100 %
10.02.2017 23:40 -2,0 C -2,0 C -1,9 C 91 % 1020,2 hPa 0,0 l/m 0,0 km/h (0 Bft) N 0 0 min 0,000 mm 0 W/m -3,3 C -2,0 C 0,0 km/h (0 Bft) 100 %
10.02.2017 23:50 -2,1 C -2,1 C -2,0 C 91 % 1020,2 hPa 0,0 l/m 0,0 km/h (0 Bft) N 0 0 min 0,000 mm 0 W/m -3,4 C -2,1 C 0,0 km/h (0 Bft) 100 %
_ Min-Zeit 23:50 23:50 23:50 13:30 22:10 - 01:40 - - - - - 00:00 23:50 04:40 06:00
Minimum _ -2,1 C -2,1 C -2,0 C 78 % 1020,2 hPa - 0,0 km/h (0 Bft) - - - - - -4,2 C -2,1 C 0,0 km/h (0 Bft) 86 %
_ Max-Zeit 13:20 13:30 13:20 22:40 00:00 00:00 15:40 - - 12:40 13:00 14:50 20:30 13:20 15:40 00:00
Maximum _ 0,7 C 0,7 C 0,7 C 91 % 1022,2 hPa 0,0 l/m 3,6 km/h
O-SO (1 Bft)
- - 10 min 0,051 mm 190 W/m -2,0 C 0,7 C 11,3 km/h
O (2 Bft)
100 %
Durchschnitt _ -0,7 C -0,7 C -0,7 C 84 % 1020,8 hPa #0,0 l/m 0,6 km/h (0 Bft) NO - #40 min. #0,229 mm 71 W/m -3,0 C -0,7 C 4,7 km/h (1 Bft) 98 %
PRIVATE WETTERSTATION BILLIGHEIM-ALLFELD - www.neckar-odenwald-wetter.de - Holger Sonntag